GFSSE_250_spd_126.txt.gz
Wind_Speed
78 75 76 76 77 73 71 70 69 70 71 71 70 69 69 66 63 60 57 55 55 54 54 54 54 55 54 54 55 55 56 57 55 57 60 57 59 63 57 62 61 63 68
81 80 78 76 75 71 70 70 69 70 70 69 68 67 65 60 56 52 50 49 51 49 50 49 51 52 52 53 51 50 51 51 52 46 43 46 52 59 54 55 57 68 63
82 84 82 77 75 73 71 70 67 67 65 63 63 60 56 51 46 42 43 44 46 43 44 45 46 46 47 50 49 48 48 48 48 49 46 34 40 44 50 55 58 62 61
83 84 81 75 75 74 71 66 60 59 56 54 53 51 48 44 39 38 38 40 40 37 37 39 40 42 43 45 46 46 46 45 45 46 46 44 46 49 51 51 52 54 54
80 80 79 75 71 68 61 57 49 46 45 46 44 42 41 39 36 36 33 33 30 31 33 34 37 39 39 41 42 44 43 41 41 41 40 41 43 44 49 50 52 46 41
67 67 66 62 57 54 47 42 39 40 41 41 41 38 38 36 35 34 31 31 29 29 31 32 36 38 39 38 38 37 37 38 37 36 35 35 33 33 41 43 44 45 51
55 56 53 48 46 44 39 37 35 38 38 37 36 34 34 33 32 31 29 29 27 28 29 32 36 37 39 39 36 35 36 34 31 30 28 30 26 24 27 30 34 36 37
48 47 45 44 39 37 37 34 33 34 35 35 33 31 31 30 26 26 27 27 25 25 27 31 37 39 39 40 38 37 34 33 30 31 26 24 18 19 25 28 28 29 31
43 43 42 40 35 34 34 33 33 33 33 32 29 29 29 29 29 28 25 26 25 26 28 31 38 40 40 40 39 38 35 33 32 31 27 24 21 22 26 27 27 27 29
43 45 41 36 33 32 33 33 33 33 30 33 31 31 30 26 26 26 27 26 29 27 28 33 37 41 40 40 37 37 35 31 31 30 29 28 26 22 23 25 30 30 30
43 43 41 37 34 33 34 38 35 35 34 33 33 33 32 30 28 27 32 30 30 29 29 36 37 42 42 40 39 37 35 30 28 29 29 27 24 25 24 24 26 29 29
48 47 45 39 37 36 37 39 39 37 38 37 35 35 35 35 32 32 32 31 30 30 33 36 36 41 44 43 41 39 36 30 26 28 28 27 25 25 24 25 24 29 31
52 51 51 43 39 41 43 43 41 40 40 39 37 38 38 36 34 34 33 34 33 32 35 36 36 41 43 44 41 40 37 31 27 26 30 31 27 24 27 29 26 27 33
53 53 51 51 42 43 44 45 45 43 43 42 42 41 42 41 40 37 34 37 35 34 36 37 38 41 43 43 40 38 36 32 27 25 27 30 27 25 27 31 33 31 33
52 57 54 52 50 45 47 45 47 48 47 47 48 47 46 47 43 41 37 39 37 37 37 36 39 42 42 43 41 38 35 31 28 26 26 28 29 28 29 34 36 35 34
54 59 59 55 55 50 48 48 52 48 51 51 51 50 51 50 48 47 40 40 39 39 40 38 41 41 43 42 42 40 37 31 29 27 28 28 26 27 27 30 38 39 37
61 60 65 61 58 58 54 49 48 46 47 49 54 53 53 53 53 47 42 42 40 43 42 40 41 43 45 44 41 39 39 34 30 29 27 27 24 26 28 30 37 36 38
66 62 69 66 61 60 60 56 50 47 49 50 50 53 56 56 52 46 44 42 42 43 42 40 42 43 43 44 41 40 37 35 31 32 27 29 27 24 29 29 34 41 35
71 67 69 70 66 62 62 60 57 53 51 48 52 52 52 54 51 49 46 44 42 42 43 42 43 42 43 44 42 41 36 34 32 32 28 29 29 25 27 29 33 38 35
82 74 70 74 71 66 60 62 63 59 57 57 52 54 52 52 51 50 49 48 43 40 41 42 43 42 42 44 46 43 34 32 35 32 29 27 28 27 24 30 31 37 42
91 86 78 80 81 76 69 68 67 63 63 61 58 53 53 56 56 52 52 47 41 42 43 42 45 42 44 44 46 44 37 33 34 32 32 27 27 31 27 26 30 34 43
94 90 85 80 84 79 73 71 69 71 66 62 60 56 54 55 57 50 50 47 46 46 41 43 45 47 45 46 45 46 36 34 35 33 31 26 27 27 25 25 24 33 42
95 92 86 82 84 82 78 74 73 71 70 64 60 57 56 55 48 50 53 49 48 47 44 49 48 48 47 48 44 44 39 34 37 34 30 28 26 25 27 29 29 28 42
93 93 90 84 81 78 76 71 71 70 71 66 60 56 53 52 51 52 54 56 47 48 52 52 49 51 51 49 44 44 42 34 35 37 32 29 27 26 26 30 31 28 33
93 89 89 85 78 77 77 75 71 69 73 66 58 52 39 45 59 58 57 55 57 54 56 55 56 53 50 45 45 47 43 36 36 36 34 31 30 28 26 27 33 31 26
86 88 87 84 80 77 78 75 70 68 71 64 62 57 44 56 72 62 58 60 60 59 60 56 50 47 48 47 46 46 41 38 39 36 35 33 30 29 28 28 33 32 29

GFSSE_250_spd_129.txt.gz
Wind_Speed
74 70 64 64 67 69 69 72 73 73 71 72 72 70 71 69 67 66 65 62 60 59 60 58 56 54 53 52 52 52 51 51 50 48 45 47 50 50 57 58 58 57 53
73 74 72 70 72 74 74 75 75 74 72 70 69 69 67 65 62 62 56 56 54 53 51 52 53 53 52 50 50 49 48 47 46 44 41 39 45 46 38 36 36 43 53
79 78 78 76 74 75 75 76 75 72 72 69 62 61 61 57 55 53 49 46 44 47 48 50 50 48 48 47 45 45 44 44 43 43 43 42 39 43 43 44 41 43 47
78 78 76 76 74 74 76 74 72 69 63 53 53 50 50 48 47 45 43 40 39 39 41 43 43 43 43 43 41 42 42 42 42 42 42 39 39 44 46 46 40 39 43
77 74 73 71 72 67 67 66 60 55 50 46 44 44 43 43 43 42 40 37 36 36 35 37 39 40 40 39 39 39 39 40 39 36 35 36 37 36 37 39 47 43 45
66 62 61 58 56 50 52 47 46 44 42 39 38 40 40 40 40 38 38 37 35 34 33 32 36 36 35 37 37 38 37 33 33 34 34 32 32 31 29 32 40 49 50
49 50 50 48 46 41 36 39 38 38 36 36 37 37 36 38 36 36 35 33 29 27 28 29 31 31 32 34 35 36 34 33 32 30 30 30 27 23 25 28 32 36 38
45 44 43 41 38 34 34 36 36 38 36 35 36 34 35 35 34 33 33 29 28 25 27 28 30 31 31 34 35 36 35 34 32 30 29 30 25 22 22 25 26 26 28
40 44 41 38 34 31 34 35 36 35 39 37 35 34 33 34 32 32 32 32 28 23 24 27 30 31 32 34 37 39 37 35 34 30 27 28 24 20 26 25 23 24 25
39 42 40 35 33 31 31 34 37 37 39 40 37 35 34 35 33 33 30 27 26 26 27 27 29 31 32 34 38 42 39 36 35 30 27 27 25 21 26 26 25 26 28
43 42 40 35 33 30 31 35 36 36 35 38 37 35 34 35 36 35 33 29 27 28 27 29 29 32 34 36 40 42 42 36 36 31 27 26 27 25 28 23 21 26 28
48 46 46 43 37 32 32 36 38 36 37 37 37 37 36 37 39 39 34 33 30 28 29 30 32 32 35 38 41 42 43 41 36 33 25 27 26 24 26 22 24 28 26
52 49 52 49 44 40 34 36 38 40 40 40 38 39 39 38 39 38 36 35 33 29 30 31 33 33 35 39 41 42 44 43 38 35 27 23 28 29 26 25 32 32 28
54 49 54 54 48 47 41 37 37 40 44 43 43 41 42 40 40 40 40 38 36 33 31 32 34 34 34 39 41 42 45 42 39 38 28 24 25 28 28 30 31 34 33
60 58 56 61 56 52 48 42 40 39 43 46 45 47 45 44 43 43 41 40 41 41 32 32 33 38 36 39 41 42 44 42 42 40 30 25 25 25 27 28 30 33 33
64 63 63 65 62 57 52 48 44 42 43 42 45 48 47 47 47 44 44 42 44 41 38 34 33 37 37 38 41 41 43 41 44 43 35 26 25 25 25 28 28 30 35
67 66 62 62 66 62 59 54 49 48 46 44 44 40 39 40 41 43 45 43 44 44 40 36 35 36 37 39 42 41 41 43 42 43 38 28 27 25 24 27 34 28 30
71 67 68 62 67 66 64 59 55 52 50 48 47 44 44 43 43 43 41 40 42 40 38 37 39 36 37 39 42 43 42 43 39 42 39 32 27 26 25 26 31 35 34
76 72 70 66 64 72 67 61 55 55 53 50 48 48 47 45 43 44 43 44 43 43 42 41 40 37 36 37 38 41 43 46 39 42 39 36 29 27 28 28 29 34 35
84 80 76 73 67 74 71 63 58 57 56 53 53 51 49 48 45 45 44 43 44 48 48 45 42 36 38 35 37 42 45 48 42 42 39 38 32 27 29 30 27 32 35
92 87 81 79 75 73 73 69 63 62 60 56 54 52 47 46 48 47 46 46 46 47 48 46 42 41 42 36 39 44 44 50 43 42 43 39 31 27 29 31 28 27 34
95 92 89 85 83 76 77 76 74 69 64 63 58 58 53 49 49 48 47 46 48 51 49 49 44 39 39 38 43 45 48 49 42 44 43 38 33 29 28 31 31 27 29
104 94 90 89 87 84 82 82 79 75 69 64 65 62 56 51 49 49 46 46 47 49 48 45 43 41 39 40 44 50 51 43 43 45 42 40 35 32 28 29 31 27 28
107 104 97 94 88 88 84 82 81 76 73 69 67 62 61 55 53 47 44 47 46 48 51 47 49 43 41 46 49 51 47 40 42 46 45 41 38 32 31 31 31 31 29
109 97 103 98 96 89 85 84 82 78 75 72 69 63 60 55 51 41 36 37 46 55 53 48 51 54 52 53 52 49 41 38 43 43 45 48 43 31 34 33 30 33 29
106 93 95 101 97 92 88 82 83 77 75 73 70 63 59 51 48 44 36 46 39 51 52 55 54 58 48 50 42 41 41 40 45 45 43 46 42 38 32 33 32 32 30

GFSSE_250_spd_132.txt.gz
Wind_Speed
70 69 66 64 64 63 66 65 68 69 70 71 73 74 76 77 75 74 70 66 64 61 60 59 58 56 55 54 53 51 48 48 47 46 44 41 38 28 42 39 36 47 48
75 73 73 72 70 70 73 70 71 73 73 73 75 73 72 71 72 69 64 60 54 52 52 51 54 54 51 50 49 45 43 42 42 42 40 37 39 44 44 38 26 40 46
80 76 76 78 77 77 74 74 73 74 73 72 72 69 67 66 66 60 58 51 46 45 46 47 48 47 48 46 45 44 40 38 38 38 37 37 36 36 35 45 49 44 41
80 81 80 81 82 78 77 76 72 71 69 68 66 62 59 56 56 54 49 44 42 42 44 45 45 46 46 44 42 40 38 38 38 38 38 37 32 28 30 43 44 37 37
80 79 79 79 74 69 68 65 65 60 59 57 51 51 47 48 49 47 45 40 40 41 41 44 43 44 43 41 39 39 37 36 38 36 33 33 29 29 27 34 38 45 44
71 71 70 65 63 60 54 50 46 43 46 42 41 43 44 45 43 41 39 36 38 38 38 40 39 40 39 39 37 36 36 37 35 33 31 30 26 27 27 27 33 36 40
60 58 57 54 53 49 41 38 40 38 37 38 38 40 42 42 41 37 35 36 35 36 35 35 36 37 38 37 38 36 36 36 34 31 30 29 25 24 25 27 29 33 34
51 50 50 51 46 41 35 34 36 36 35 36 37 38 44 40 39 34 33 33 35 36 36 35 33 33 35 35 36 36 34 35 36 32 30 29 22 23 23 24 25 26 29
46 46 44 47 39 38 34 33 34 33 34 35 35 38 42 43 39 35 33 33 33 32 33 33 33 32 33 32 35 36 37 36 37 33 32 30 22 17 24 26 26 27 26
42 43 41 45 41 37 31 32 31 31 33 35 36 38 39 44 39 36 33 32 33 32 32 33 33 32 32 33 35 38 38 38 36 39 35 30 22 10 26 28 27 25 25
47 46 44 45 44 38 35 31 30 29 32 34 34 38 38 40 37 35 35 35 34 33 34 32 33 33 32 32 34 38 36 37 37 41 38 35 25 17 23 23 23 24 28
53 51 48 47 50 46 41 37 33 32 31 33 34 32 36 38 35 35 33 34 35 35 35 32 33 34 33 33 35 37 37 38 39 39 40 37 29 20 20 29 29 25 27
57 54 55 54 54 54 47 42 40 38 34 33 34 33 35 38 38 36 35 35 35 36 36 35 34 34 34 35 36 36 37 38 38 36 40 37 31 21 22 26 28 30 29
60 59 58 56 56 56 50 47 45 42 39 36 34 36 38 39 39 39 38 36 37 37 38 37 38 33 34 35 36 34 36 38 39 36 41 40 38 26 20 23 30 31 31
64 65 62 59 56 60 58 52 50 48 44 40 38 35 38 42 43 42 41 39 39 39 39 39 38 36 36 36 34 34 35 38 40 37 40 41 39 32 23 22 27 30 33
70 69 66 62 59 61 63 57 55 52 48 44 43 39 36 38 40 46 46 43 41 41 40 39 39 35 35 35 35 35 36 37 39 38 39 44 39 34 27 21 26 24 26
73 74 71 68 63 61 64 62 60 57 51 48 45 46 42 37 36 34 37 32 31 31 34 36 35 31 33 35 37 36 35 36 35 39 39 42 38 37 30 24 26 32 27
76 77 74 72 66 65 67 66 62 58 53 51 49 48 47 44 40 38 37 34 32 33 34 34 35 37 37 39 37 35 34 35 36 39 41 43 40 42 32 27 26 33 37
80 81 77 75 72 67 72 72 70 62 56 52 51 51 48 45 43 41 40 37 35 33 31 30 33 37 38 38 35 33 35 34 38 38 43 43 40 43 37 30 28 31 34
89 84 81 79 76 71 71 75 74 67 58 53 55 52 47 44 43 43 42 40 38 39 38 34 37 41 41 35 32 35 36 37 39 38 45 43 40 42 40 33 30 29 35
96 93 89 87 84 81 73 72 73 74 70 60 58 54 51 48 45 45 41 37 35 39 37 37 39 38 36 33 34 37 38 38 37 39 45 40 41 43 40 38 31 32 33
104 105 99 94 90 86 79 72 77 79 76 66 59 54 54 54 51 46 44 42 43 42 40 40 39 33 30 26 31 35 35 38 39 42 45 42 42 44 43 43 35 31 33
111 115 110 100 95 90 87 81 81 80 77 70 66 64 62 58 56 52 47 45 42 42 42 41 38 35 40 34 33 32 34 40 45 47 46 40 43 47 48 44 37 31 33
116 116 109 111 104 100 93 86 81 83 79 76 75 71 65 63 61 58 53 46 47 46 41 37 36 33 37 37 41 41 39 41 39 40 34 39 47 50 48 45 41 34 33
114 123 105 101 107 105 93 89 82 84 83 80 75 73 71 67 64 61 57 51 49 43 37 43 44 48 40 44 45 45 41 36 35 35 34 44 49 52 48 46 44 37 34
92 117 119 117 114 102 89 92 84 81 85 83 78 76 76 70 66 64 58 50 44 30 36 45 39 41 40 42 43 44 39 39 42 38 40 46 52 53 51 43 45 36 33

GFSSE_250_spd_135.txt.gz
Wind_Speed
68 68 68 66 67 68 66 66 69 71 70 72 73 73 73 74 75 76 76 76 74 72 70 65 64 60 55 55 53 52 48 46 44 43 40 39 37 37 39 41 38 36 38
69 70 70 72 74 73 74 73 74 74 74 75 77 75 73 73 74 73 72 71 70 70 65 61 57 50 48 47 48 46 46 43 39 36 35 34 34 35 39 42 41 42 34
77 76 75 76 76 77 77 76 78 76 79 79 78 75 72 70 67 65 67 65 64 62 57 54 47 44 43 43 45 44 42 41 38 34 33 33 33 32 30 34 40 40 32
77 77 77 77 75 77 77 79 78 77 77 76 73 71 66 63 58 57 56 57 57 56 51 46 41 38 39 40 40 40 38 38 37 37 36 31 32 28 26 30 38 36 28
71 73 71 72 74 75 75 73 73 73 65 64 61 59 55 52 48 49 51 52 51 51 47 41 37 36 36 35 37 38 36 37 37 36 30 32 28 27 26 29 34 36 31
64 63 64 66 68 69 68 65 59 56 51 49 48 46 46 46 43 44 47 46 47 46 41 37 34 33 34 35 35 34 36 33 34 33 30 27 25 23 23 24 30 30 34
56 58 54 53 56 56 52 52 49 47 42 40 41 40 40 40 38 42 45 45 44 42 38 35 33 31 34 33 32 32 31 33 36 33 32 27 25 24 23 23 23 27 30
49 49 49 49 51 51 47 46 43 41 38 37 35 35 37 36 34 38 43 46 45 42 34 32 31 30 30 31 32 32 32 33 34 31 30 30 27 22 23 24 22 23 28
46 47 47 46 48 47 42 39 36 36 33 33 31 35 34 35 33 34 40 45 44 37 32 32 30 30 29 29 31 31 33 33 34 32 30 30 30 19 19 25 23 25 27
47 48 48 47 47 46 41 36 33 33 33 34 33 31 33 33 35 34 38 41 39 35 33 33 32 30 33 31 33 32 34 35 33 32 31 29 32 23 18 24 26 25 26
53 51 51 50 50 47 45 40 36 34 33 33 31 30 30 32 34 36 37 40 36 35 34 35 34 33 32 28 31 31 34 34 34 33 29 29 31 28 15 22 26 22 27
60 57 54 53 54 52 48 47 40 37 39 37 33 33 31 31 32 36 37 38 37 37 35 36 37 35 33 32 30 30 32 33 34 32 30 26 30 30 22 19 27 28 26
63 62 60 57 56 55 54 54 49 44 44 43 40 36 34 31 31 30 36 36 37 35 35 36 36 36 35 33 28 31 32 31 32 33 33 33 30 32 27 17 22 29 30
66 65 67 65 61 58 56 58 56 49 46 44 44 38 35 33 31 31 34 40 38 37 38 39 38 37 38 35 30 29 32 30 32 33 34 34 31 33 30 21 20 27 31
66 66 67 65 61 60 59 59 59 54 49 46 44 42 39 36 34 32 36 38 38 40 41 41 41 42 40 36 31 31 30 30 32 34 35 33 28 32 31 30 19 24 28
67 68 71 70 68 66 64 62 62 56 52 50 48 46 41 38 36 37 35 39 41 42 43 44 46 43 34 31 31 31 30 33 32 31 35 32 28 32 30 32 23 20 23
75 74 74 76 75 71 67 66 64 60 57 55 52 49 47 42 38 37 38 36 39 42 39 32 30 32 32 32 34 35 34 34 31 29 33 36 30 32 28 33 31 21 27
85 82 77 74 77 76 74 71 70 66 62 59 56 53 51 47 44 42 41 39 37 37 36 32 33 28 28 31 32 33 35 31 31 29 33 36 32 33 29 33 35 33 22
91 88 83 79 76 80 77 74 73 71 66 62 57 54 52 49 45 45 43 41 39 39 38 36 35 33 34 36 36 34 31 26 31 34 36 33 34 33 34 35 37 40 35
93 96 91 86 82 78 79 78 73 73 72 68 63 56 55 53 49 46 46 44 37 38 38 37 38 36 37 37 37 28 25 25 30 33 35 33 36 38 36 37 40 41 41
100 99 101 96 86 84 83 81 78 71 71 75 70 67 59 56 51 49 48 45 38 38 38 36 36 37 38 36 38 26 23 25 28 31 31 34 38 41 34 36 40 43 43
108 107 104 106 98 90 90 89 86 83 72 78 73 69 62 57 56 54 51 48 43 40 37 39 41 41 37 38 35 37 32 28 27 28 32 38 41 40 31 38 40 44 43
108 113 114 111 109 102 92 96 94 91 89 78 70 67 70 63 61 60 54 50 47 45 46 44 42 41 39 30 27 27 33 33 30 31 33 34 34 33 34 41 44 48 45
110 109 107 112 114 110 103 99 98 94 89 81 77 76 74 68 64 61 58 54 52 50 48 50 49 44 41 33 32 30 31 37 36 34 35 35 34 33 39 45 44 49 46
105 109 110 109 114 113 113 105 98 96 90 88 80 82 74 70 67 66 62 61 56 52 54 54 50 46 40 36 37 39 39 41 40 35 32 36 39 36 42 46 45 48 47
78 84 88 91 102 104 115 109 99 97 93 93 85 82 74 73 73 69 66 63 61 59 55 55 52 46 34 38 36 38 38 38 39 40 41 44 41 44 49 49 48 49 50